Wind_Speed
40 39 37 35 34 32 31 31 31 31 31 30 28 27 27 27 27 27 28 28 29 29 28 28 28 28 29 29 30 30 31 32 33 34 35 35 36 37
39 37 34 33 31 30 28 29 30 30 28 27 26 25 24 25 26 27 28 28 28 28 29 29 29 29 29 30 30 31 31 32 33 34 35 35 37 38
34 33 32 31 30 29 29 27 27 27 26 25 25 25 25 26 27 28 28 29 29 30 30 30 31 31 31 31 32 32 32 32 33 33 35 36 37 38
31 30 29 30 29 28 27 26 25 24 24 24 25 26 27 27 28 28 29 30 30 31 32 32 33 34 34 34 34 34 34 34 34 35 35 37 37 38
29 28 29 29 28 27 26 25 23 23 24 24 24 25 26 26 27 29 30 31 32 33 34 34 35 35 36 36 36 36 36 36 36 37 37 37 39 40
27 28 29 27 26 26 25 24 23 23 23 23 23 24 25 26 27 29 30 32 33 34 36 36 37 38 38 38 39 39 39 39 38 38 39 39 40 41
25 25 24 24 24 23 22 21 20 20 20 20 21 23 24 25 27 28 30 32 33 34 35 36 37 38 39 39 39 40 40 40 40 40 40 40 41 41
23 22 21 20 20 18 17 17 17 17 18 19 20 22 23 24 25 27 28 30 31 32 34 35 36 37 38 39 40 40 40 40 41 41 40 40 39 40
19 18 18 16 15 14 13 13 14 14 15 16 18 19 21 22 24 25 27 29 30 32 33 34 35 36 37 38 39 40 40 41 41 40 40 40 39 39
12 12 11 10 9 10 10 11 11 11 13 14 16 18 19 21 23 24 26 28 29 31 32 34 35 36 37 37 38 38 39 39 39 39 39 38 38 38
8 8 7 8 8 8 8 8 9 10 11 13 14 16 18 20 22 24 26 28 29 30 31 33 34 35 35 35 36 36 36 36 37 38 37 37 37 36
7 7 7 7 7 7 7 7 8 9 10 11 13 15 17 19 21 23 25 27 29 30 31 31 32 32 33 33 33 33 34 34 34 34 34 34 34 34
6 6 6 6 6 6 6 6 7 8 9 11 13 14 16 19 21 23 24 26 27 27 28 29 29 29 29 29 30 30 30 31 30 30 30 30 30 30
7 7 7 7 7 6 6 6 6 7 9 10 12 14 16 19 21 23 24 25 25 26 26 26 26 25 26 26 26 26 26 27 27 27 27 26 26 26
8 8 8 7 7 7 6 6 6 7 8 11 13 15 17 20 22 24 25 25 25 25 24 24 23 23 22 23 23 23 24 24 24 24 23 22 22 23
9 8 8 8 8 7 6 5 6 7 9 11 13 15 18 20 22 24 25 25 25 24 24 23 22 21 21 21 21 21 22 22 23 23 21 21 22 22
10 9 9 9 9 8 7 6 6 7 9 11 14 16 18 21 22 24 25 25 25 25 24 23 21 20 19 19 20 20 21 22 23 24 23 22 22 22
10 10 10 10 10 9 7 6 6 7 9 11 13 15 18 20 23 25 26 27 27 26 25 24 22 20 19 18 19 19 20 21 22 24 25 25 24 24
11 11 11 11 10 9 8 7 7 7 8 10 12 14 17 20 23 25 27 28 29 28 27 25 23 21 20 19 18 19 19 20 21 23 24 26 27 27
12 12 12 12 11 10 9 8 8 8 8 9 11 13 16 19 22 25 27 29 30 30 29 27 25 23 21 19 19 19 19 19 20 22 23 25 28 29
13 13 13 13 12 12 11 11 10 10 10 10 11 13 15 18 21 24 27 29 30 31 30 29 27 24 22 20 19 18 19 19 20 21 23 24 26 29
14 14 14 14 14 14 13 13 12 12 11 12 12 14 16 18 21 23 26 29 31 32 32 31 29 27 24 22 20 19 19 19 20 21 22 24 26 27
15 15 15 16 16 16 15 15 14 14 14 14 15 15 17 19 21 23 26 28 31 33 33 32 31 30 27 25 22 21 20 19 20 20 22 24 26 27
Wind_Direction
270 270 269 269 268 266 264 263 263 262 262 258 256 253 251 250 252 252 253 253 254 254 255 256 256 256 256 257 257 258 258 258 258 259 259 259 259 259
268 267 265 263 262 260 260 262 260 259 256 252 252 252 253 254 255 255 256 257 258 258 259 259 259 259 259 258 258 258 258 259 259 258 259 258 257 256
263 260 258 259 258 255 259 258 256 254 252 252 253 254 256 259 259 259 261 262 262 262 262 261 260 260 260 260 260 260 259 260 260 259 259 258 257 256
257 254 254 254 251 250 253 255 258 258 256 255 256 256 258 261 262 264 265 266 265 265 265 264 263 263 262 261 261 261 260 260 260 261 260 258 257 256
250 247 247 247 247 252 255 257 256 256 257 257 258 260 262 263 265 266 267 268 269 269 269 267 266 265 264 263 263 263 262 261 260 260 260 259 257 255
244 243 244 244 250 253 255 256 257 258 259 261 262 264 265 267 268 269 270 270 271 271 270 269 268 267 265 264 263 263 262 261 260 260 259 258 257 254
242 244 246 248 250 253 254 255 257 259 262 264 267 269 271 272 273 274 274 274 273 272 272 271 269 268 266 265 264 263 262 261 260 259 259 259 257 255
244 246 250 249 248 251 251 252 255 259 263 268 271 273 275 276 277 277 278 277 276 275 274 273 272 271 269 266 264 263 261 261 260 259 258 258 258 255
239 239 239 241 244 247 250 254 257 261 266 271 275 278 281 282 283 283 283 283 282 281 280 278 275 273 271 268 265 263 262 261 260 259 259 257 257 255
233 231 229 229 237 246 252 255 260 266 273 278 281 285 288 290 291 291 290 289 288 286 283 281 279 276 273 269 266 264 262 260 259 258 258 257 256 254
228 222 223 231 239 245 249 257 265 272 279 284 289 293 296 297 298 298 297 295 293 290 287 284 281 277 274 270 266 263 262 260 258 256 256 255 254 252
211 209 216 225 231 238 245 254 265 276 285 292 299 302 305 307 309 308 307 304 302 298 293 289 284 279 275 271 268 263 260 259 257 256 256 254 252 251
209 212 214 221 228 234 244 259 273 284 296 305 311 315 318 321 322 321 318 314 311 306 301 295 290 284 278 274 270 266 261 258 256 255 254 253 252 250
216 217 220 226 231 238 253 266 279 294 308 319 325 329 331 332 333 331 327 323 318 312 306 301 296 289 282 276 272 267 263 259 255 253 251 249 248 245
222 224 228 232 235 242 252 267 286 305 323 333 336 339 341 341 340 337 334 331 325 319 313 308 302 294 287 280 275 269 264 259 255 251 247 242 238 235
231 233 234 235 237 242 251 271 295 317 332 340 344 347 348 347 345 343 341 338 334 327 320 314 308 300 291 284 277 271 265 259 255 251 246 240 234 230
236 237 237 237 238 241 252 273 299 320 333 342 349 353 354 353 352 350 348 345 341 336 330 322 314 306 298 289 280 274 269 263 257 253 247 240 235 232
236 237 237 236 237 241 252 270 293 312 328 342 351 356 358 358 358 357 355 351 346 342 336 330 322 313 304 295 287 280 273 267 261 255 253 249 244 238
238 238 236 235 237 241 249 265 283 301 320 337 349 356 358 359 360 359 358 356 353 349 343 337 331 323 313 302 292 285 278 271 265 259 254 250 248 247
240 239 237 235 237 242 249 259 274 290 309 328 341 349 353 355 357 358 358 357 355 353 350 344 338 331 322 311 300 290 283 277 269 263 258 254 250 248
241 240 238 236 238 242 248 256 267 280 297 312 325 335 342 347 351 353 355 355 355 354 352 349 344 338 331 322 311 299 289 281 274 267 262 257 253 250
241 241 239 237 237 240 246 254 263 274 287 300 310 320 329 336 342 346 349 351 352 352 352 351 348 344 338 331 321 309 297 287 279 272 265 260 256 253
240 242 242 240 239 240 245 252 259 268 279 289 299 308 317 326 333 339 343 346 348 349 349 349 348 345 340 334 326 316 305 294 285 277 269 263 259 256
Height
5742 5742 5742 5744 5745 5747 5748 5750 5752 5753 5754 5756 5757 5758 5760 5762 5764 5766 5767 5769 5770 5771 5772 5773 5775 5776 5777 5777 5779 5779 5780 5781 5782 5783 5783 5785 5786 5788
5731 5732 5734 5735 5737 5738 5740 5742 5743 5745 5747 5748 5750 5751 5753 5754 5756 5758 5759 5760 5762 5763 5764 5765 5766 5767 5768 5769 5770 5770 5771 5771 5772 5772 5773 5774 5776 5777
5721 5723 5725 5727 5728 5730 5732 5734 5736 5738 5739 5741 5743 5744 5746 5747 5749 5750 5751 5752 5753 5754 5755 5756 5757 5758 5758 5759 5760 5760 5761 5761 5761 5762 5763 5764 5765 5767
5712 5714 5716 5718 5721 5723 5725 5728 5729 5731 5733 5734 5736 5737 5739 5740 5741 5742 5743 5743 5744 5745 5746 5746 5747 5747 5748 5748 5749 5749 5750 5750 5750 5751 5751 5752 5753 5755
5705 5707 5709 5711 5713 5716 5719 5721 5722 5724 5726 5727 5729 5730 5732 5733 5733 5734 5735 5735 5735 5735 5735 5736 5736 5736 5737 5737 5737 5738 5738 5738 5738 5738 5739 5740 5741 5743
5698 5701 5703 5705 5707 5710 5712 5714 5716 5717 5719 5720 5722 5723 5724 5725 5725 5725 5726 5725 5725 5725 5725 5725 5724 5724 5725 5725 5725 5725 5725 5725 5725 5726 5726 5727 5728 5730
5693 5695 5697 5699 5702 5704 5706 5707 5709 5711 5713 5714 5715 5716 5716 5717 5717 5716 5716 5716 5715 5715 5714 5713 5713 5713 5712 5712 5712 5712 5712 5712 5712 5712 5713 5714 5715 5716
5688 5690 5692 5694 5696 5698 5700 5702 5704 5706 5707 5708 5709 5709 5709 5709 5708 5708 5707 5707 5706 5705 5703 5702 5701 5700 5699 5699 5698 5698 5698 5698 5699 5699 5700 5701 5702 5703
5684 5686 5688 5690 5692 5694 5696 5698 5699 5701 5702 5703 5703 5703 5703 5702 5701 5700 5699 5697 5695 5693 5692 5690 5689 5688 5687 5686 5685 5685 5685 5685 5685 5686 5687 5688 5689 5690
5681 5683 5685 5687 5689 5691 5693 5694 5695 5697 5698 5698 5698 5697 5696 5695 5694 5692 5690 5688 5686 5683 5681 5679 5677 5675 5674 5673 5672 5672 5672 5672 5673 5674 5675 5676 5677 5678
5679 5681 5682 5685 5687 5688 5690 5691 5693 5693 5694 5693 5693 5692 5691 5689 5687 5685 5682 5679 5676 5674 5671 5668 5665 5663 5662 5661 5660 5660 5660 5660 5661 5662 5663 5664 5665 5666
5678 5679 5681 5683 5685 5686 5687 5689 5690 5690 5690 5689 5689 5687 5685 5683 5680 5677 5673 5670 5666 5663 5660 5657 5655 5653 5651 5650 5649 5649 5649 5649 5650 5651 5652 5653 5654 5656
5677 5678 5680 5681 5683 5684 5685 5686 5686 5686 5686 5685 5684 5682 5680 5677 5673 5670 5666 5662 5658 5655 5651 5648 5645 5643 5641 5640 5640 5639 5639 5640 5640 5641 5642 5644 5645 5646
5675 5677 5678 5679 5681 5682 5683 5683 5683 5683 5683 5681 5679 5677 5675 5671 5668 5664 5660 5656 5652 5648 5644 5640 5637 5635 5633 5632 5631 5631 5631 5631 5632 5633 5634 5635 5637 5638
5674 5675 5676 5677 5678 5679 5680 5680 5680 5680 5679 5677 5675 5673 5670 5666 5663 5659 5655 5650 5646 5641 5637 5634 5631 5628 5627 5625 5624 5624 5624 5624 5625 5625 5627 5628 5630 5631
5671 5672 5673 5674 5675 5676 5677 5677 5677 5677 5675 5674 5672 5669 5666 5662 5659 5655 5650 5645 5641 5636 5632 5628 5625 5623 5621 5619 5618 5617 5617 5617 5617 5618 5620 5622 5623 5625
5668 5669 5671 5672 5673 5674 5674 5674 5674 5674 5672 5671 5668 5666 5663 5659 5656 5651 5647 5642 5637 5632 5628 5624 5620 5617 5615 5613 5612 5611 5611 5611 5611 5612 5613 5615 5617 5618
5665 5666 5667 5669 5670 5671 5671 5671 5671 5671 5670 5668 5666 5663 5660 5657 5653 5649 5644 5639 5634 5629 5624 5620 5616 5613 5610 5608 5607 5606 5605 5604 5605 5606 5607 5608 5610 5612
5662 5663 5664 5665 5666 5667 5668 5668 5668 5668 5667 5665 5663 5661 5658 5655 5651 5647 5642 5637 5632 5626 5621 5616 5612 5608 5605 5603 5602 5600 5599 5599 5599 5599 5600 5602 5603 5605
5658 5659 5660 5661 5662 5663 5664 5665 5665 5665 5663 5662 5660 5658 5656 5653 5649 5645 5640 5635 5630 5624 5618 5613 5609 5605 5601 5599 5597 5595 5594 5593 5593 5593 5593 5594 5596 5598
5653 5654 5656 5657 5658 5660 5661 5661 5661 5661 5660 5659 5657 5655 5653 5650 5647 5643 5638 5633 5628 5622 5616 5611 5606 5602 5598 5594 5592 5590 5588 5587 5587 5586 5587 5588 5589 5590
5648 5649 5651 5652 5654 5655 5656 5657 5657 5657 5656 5655 5653 5652 5650 5647 5644 5640 5636 5631 5625 5620 5614 5609 5604 5599 5594 5591 5588 5585 5583 5582 5581 5580 5580 5580 5581 5582
5643 5644 5646 5647 5649 5650 5652 5652 5653 5652 5652 5651 5650 5648 5646 5643 5640 5637 5633 5628 5623 5617 5612 5606 5601 5596 5591 5587 5584 5580 5578 5576 5574 5574 5573 5573 5573 5574